Humidity-temperature Sensor

Selected Measurement Type: Air Temperature

 
Air Temperature [°C]     6 entries per hour
Showing data from 9/19/2022 (00:00:00 Z) to 9/18/2022 (00:01:00 Z)
Previous Next [ Day | 3-Days | 7-Days ]
First Last
Prev [ Day | 3-Days | 7-Days ] Next
First Last

Start Time:     :
End Time:     :     
Time (in GMT) :00 :50 :40 :30 :20 :10
Previous Next [ Day | 3-Days | 7-Days ]
First Last
Prev [ Day | 3-Days | 7-Days ] Next
First Last


123 => good data
MM => data is determined as missing
-- => data not received/configured
Back to Top Back to Top
9/19/2022 00:00 to 23:10 22.07 21.97 22.04 22.10 22.23 22.33
9/18/2022 23:00 to 22:10 22.27 22.16 22.03 22.04 22.13 22.03
9/18/2022 22:00 to 21:10 22.03 22.03 22.03 21.88 21.92 21.90
9/18/2022 21:00 to 20:10 21.86 21.78 21.71 21.71 21.72 21.75
9/18/2022 20:00 to 19:10 21.78 21.70 21.64 21.59 21.60 21.63
9/18/2022 19:00 to 18:10 21.54 21.77 21.61 21.59 21.57 21.57
9/18/2022 18:00 to 17:10 21.47 21.50 21.52 21.45 21.47 21.56
9/18/2022 17:00 to 16:10 21.49 21.50 21.51 21.50 21.63 21.53
9/18/2022 16:00 to 15:10 21.52 21.54 21.52 21.48 21.54 21.53
9/18/2022 15:00 to 14:10 21.53 21.53 21.49 21.47 21.45 21.39
9/18/2022 14:00 to 13:10 21.34 21.29 21.19 21.25 21.28 21.26
9/18/2022 13:00 to 12:10 21.28 21.20 21.25 21.22 21.30 21.22
9/18/2022 12:00 to 11:10 21.28 21.29 21.29 21.31 21.32 21.27
9/18/2022 11:00 to 10:10 21.13 21.21 21.33 21.27 21.25 21.27
9/18/2022 10:00 to 9:10 21.21 21.27 21.29 21.32 21.29 21.28
9/18/2022 09:00 to 8:10 21.27 21.27 21.23 21.22 21.24 21.22
9/18/2022 08:00 to 7:10 21.24 21.35 21.24 21.21 21.37 21.21
9/18/2022 07:00 to 6:10 21.40 21.39 21.39 21.45 21.52 21.47
9/18/2022 06:00 to 5:10 21.47 21.50 21.51 21.52 21.55 21.53
9/18/2022 05:00 to 4:10 21.52 21.52 21.65 21.66 21.62 21.57
9/18/2022 04:00 to 3:10 21.59 21.62 21.68 21.66 21.60 21.63
9/18/2022 03:00 to 2:10 21.63 21.64 21.63 21.62 21.64 21.58
9/18/2022 02:00 to 1:10 21.59 21.69 21.71 21.68 21.79 21.76
9/18/2022 01:00 to 0:10 21.97 21.97 22.09 21.99 22.14 22.13